Location: Costa Mesa
(33.6411°N, 117.9187°W)
Time: 22:03:50
(UTC+00:00)

ARGOS - Pass Details

Date: 10 September 2024
Orbit: 818 x 834 km, 98.4° (Epoch: 09 October)

Event Time Altitude Azimuth Distance (km) Brightness Sun altitude
Rises 12:14:02 0° 18° (NNE) 3,352 6.8 -16.7°
Reaches altitude 10° 12:16:27 10° 22° (NNE) 2,417 6.1 -16.2°
Maximum altitude 12:21:41 56° 100° (E) 973 3.8 -15.2°
Drops below altitude 10° 12:26:55 10° 178° (S) 2,408 5.4 -14.2°
Sets 12:29:18 0° 183° (S) 3,338 6.1 -13.7°
